SL-16 DEB

Satellite information

Favourite Embed

Satellite Type and Status

DEBRISIN ORBIT

Key statistics

Satellite SL-16 DEB at a glance.

Uptime

12042

Days in orbit

Revolutions

≈ 14.3

Per day

Orbit

LEO

Low Earth Orbit

Inclination

70.8

Latest

Satellite identification and parameters

Extended collection of information and parameters for SL-16 DEB.

Object identification

Identified? True

Debris? True

Object name: SL-16 DEB

International designator: 1992-093CN

Object number (NORAD): 22397

Object ID (CCSDS): 22397

Country: COMMONWEALTH OF INDEPENDENT STATES (CIS)

Current information (Y/N): Y

RCS size: SMALL

Orbital parameters

Period: 100.631 minutes

Inclination: 70.8005 deg

SMA: 7166.614 km

Apoapsis: 811.972 km

Periapsis: 764.987 km

RAAN: 161.9797 deg

Eccentricy: 0.00327803

Argument of periapsis: 121.1905 deg

Mean anomaly: 239.2446 deg

Mean motion: 14.3097393 rev/day

Mean motion (dot): 0.0000268 rev/day2

B* drag term: 0.0010314225 1/REarth

Two-line elements (TLE)

Creation date: Dec. 14, 2025, 3:07 a.m.

Reference frame: TEME

Reference center: EARTH

Epoch: Dec. 13, 2025, 1:20 p.m. UTC

TLE line 0: 0 SL-16 DEB

TLE line 1: 1 22397U 92093CN 25347.55606306 .00002680 00000-0 10314-2 0 9995

TLE line 2: 2 22397 70.8005 161.9797 0032780 121.1905 239.2446 14.30973930703250

Live tracking on map

Real-time ground track for satellite SL-16 DEB.

In-orbit conjunctions

A list of the most updated potential collisions computed for object SL-16 DEB.

Target Orbit TCA Probability of collision Miss distance Type
COSMOS 1190 LEO 2025-11-04 22:30:24 0.0002772584 103.0 (m) PAYLOAD

Associated space launch

Second generation ELING satellite

SL-16 DEB was lifted into orbit during the mission ‘Zenit-2 | Tselina-2 12’, on board a Zenit-2 space rocket.

The launch took place on Dec. 25, 1992, 5:56 a.m. from 45/1.

For more information about the launch, click the button.

Launch to space Zenit-2 | Tselina-2 12
Zenit-2 | Tselina-2 12

Agency: N/A

Status: Launch Successful

Launch date: Dec. 25, 1992, 5:56 a.m. UTC

Rocket: Zenit-2

Launch pad: 45/1

Location: Baikonur Cosmodrome, Republic of Kazakhstan

...

Latest news about this satellite

There are no fresh news available about this satellite. Check back as we update our databases every day.


Newsletter sign-up

Weekly statistics, charts and insights to help you stay on top of the space industry.